Location: Austin
(30.3000°N, 97.7500°W)
Time: 11:06:52
(UTC-05:00)

Okean 1 - Pass Details

Date: 03 April 2024
Orbit: 508 x 533 km, 82.5° (Epoch: 21 April)

Event Time Altitude Azimuth Distance (km) Brightness Sun altitude
Exits shadow 06:09:30 28° 253° (WSW) 994 4.0 -15.1°
Maximum altitude 06:10:20 32° 279° (W) 924 4.0 -15.0°
Drops below altitude 10° 06:13:48 10° 344° (NNW) 1,756 5.9 -14.2°
Sets 06:16:07 0° 354° (N) 2,641 6.9 -13.8°
